Hourly Weather Uige

Today, 30 September, Wednesday

Time Temperature Precipitation Wind Pressure Humidity
00:00 +22°C° 0.3 mm 1 mps 692 mmHg 87%
01:00 +20°C° 0.3 mm 0 mps 691 mmHg 92%
02:00 +19°C° 0.2 mm 0 mps 691 mmHg 93%
03:00 +19°C° 0.2 mm 0 mps 690 mmHg 94%
04:00 +19°C° 0.2 mm 0 mps 690 mmHg 95%
05:00 +19°C° 0.3 mm 0 mps 691 mmHg 93%
06:00 +22°C° 0.3 mm 1 mps 691 mmHg 92%
07:00 +22°C° 0.3 mm 1 mps 692 mmHg 90%
08:00 +23°C° 0 mm 1 mps 692 mmHg 84%
09:00 +25°C° 0 mm 1 mps 692 mmHg 78%
10:00 +26°C° 0 mm 1 mps 692 mmHg 72%
11:00 +28°C° 0.2 mm 1 mps 692 mmHg 64%
12:00 +30°C° 0.2 mm 1 mps 691 mmHg 56%
13:00 +32°C° 0.2 mm 1 mps 691 mmHg 49%
14:00 +31°C° 0.8 mm 1 mps 690 mmHg 53%
15:00 +29°C° 0.8 mm 1 mps 690 mmHg 58%
16:00 +28°C° 0.8 mm 1 mps 689 mmHg 62%
17:00 +26°C° 2.1 mm 1 mps 689 mmHg 71%
18:00 +24°C° 2.1 mm 2 mps 690 mmHg 81%
19:00 +21°C° 2.1 mm 2 mps 690 mmHg 90%
20:00 +21°C° 1 mm 2 mps 690 mmHg 90%
21:00 +22°C° 1 mm 1 mps 691 mmHg 91%
22:00 +21°C° 1 mm 1 mps 691 mmHg 91%
23:00 +21°C° 0.1 mm 1 mps 691 mmHg 92%

Tomorrow, 1 October, Thursday

Time Temperature Precipitation Wind Pressure Humidity
00:00 +21°C° 0.1 mm 1 mps 690 mmHg 92%
01:00 +19°C° 0.1 mm 0 mps 690 mmHg 92%
02:00 +21°C° 0.1 mm 1 mps 690 mmHg 93%
03:00 +21°C° 0.1 mm 1 mps 690 mmHg 94%
04:00 +21°C° 0.1 mm 1 mps 689 mmHg 96%
05:00 +19°C° 0 mm 0 mps 690 mmHg 94%
06:00 +19°C° 0 mm 0 mps 691 mmHg 93%
07:00 +20°C° 0 mm 0 mps 691 mmHg 92%
08:00 +21°C° 0 mm 0 mps 691 mmHg 88%
09:00 +24°C° 0 mm 1 mps 691 mmHg 84%
10:00 +25°C° 0 mm 1 mps 691 mmHg 79%
11:00 +25°C° 0 mm 1 mps 691 mmHg 76%
12:00 +26°C° 0 mm 1 mps 690 mmHg 73%
13:00 +27°C° 0 mm 2 mps 689 mmHg 69%
14:00 +27°C° 0.1 mm 1 mps 688 mmHg 67%
15:00 +28°C° 0.1 mm 1 mps 688 mmHg 66%
16:00 +28°C° 0.1 mm 1 mps 688 mmHg 64%
17:00 +27°C° 0.4 mm 1 mps 688 mmHg 69%
18:00 +25°C° 0.4 mm 1 mps 689 mmHg 74%
19:00 +22°C° 0.4 mm 0 mps 689 mmHg 80%
20:00 +23°C° 0 mm 1 mps 689 mmHg 82%
21:00 +23°C° 0 mm 1 mps 690 mmHg 83%
22:00 +22°C° 0 mm 1 mps 690 mmHg 85%
23:00 +21°C° 0 mm 1 mps 690 mmHg 88%

Day after tomorrow, 2 October, Friday

Time Temperature Precipitation Wind Pressure Humidity
00:00 +21°C° 0 mm 1 mps 690 mmHg 90%
01:00 +20°C° 0 mm 1 mps 690 mmHg 92%
02:00 +20°C° 0 mm 1 mps 690 mmHg 93%
03:00 +20°C° 0 mm 1 mps 690 mmHg 94%
04:00 +18°C° 0 mm 0 mps 689 mmHg 94%
05:00 +20°C° 0 mm 1 mps 690 mmHg 92%
06:00 +21°C° 0 mm 1 mps 691 mmHg 89%
07:00 +21°C° 0 mm 1 mps 691 mmHg 86%
08:00 +24°C° 0 mm 1 mps 692 mmHg 75%
09:00 +27°C° 0 mm 1 mps 692 mmHg 64%
10:00 +30°C° 0 mm 1 mps 693 mmHg 53%
11:00 +31°C° 0 mm 1 mps 692 mmHg 50%
12:00 +32°C° 0 mm 1 mps 691 mmHg 47%
13:00 +33°C° 0 mm 1 mps 690 mmHg 43%
14:00 +32°C° 0.4 mm 1 mps 690 mmHg 47%
15:00 +31°C° 0.4 mm 1 mps 689 mmHg 50%
16:00 +28°C° 0.4 mm 0 mps 689 mmHg 54%
17:00 +27°C° 0 mm 0 mps 689 mmHg 58%
18:00 +25°C° 0 mm 0 mps 689 mmHg 62%
19:00 +24°C° 0 mm 0 mps 690 mmHg 65%
20:00 +25°C° 0 mm 1 mps 690 mmHg 69%
21:00 +24°C° 0 mm 1 mps 690 mmHg 73%
22:00 +24°C° 0 mm 1 mps 691 mmHg 77%
23:00 +23°C° 0 mm 1 mps 691 mmHg 79%

3 October, Saturday

Time Temperature Precipitation Wind Pressure Humidity
00:00 +23°C° 0 mm 1 mps 691 mmHg 81%
01:00 +22°C° 0 mm 1 mps 691 mmHg 83%
02:00 +22°C° 0 mm 1 mps 691 mmHg 86%
03:00 +21°C° 0 mm 1 mps 690 mmHg 88%
04:00 +21°C° 0 mm 1 mps 690 mmHg 91%
05:00 +19°C° 0 mm 0 mps 691 mmHg 88%
06:00 +20°C° 0 mm 0 mps 691 mmHg 85%
07:00 +20°C° 0 mm 0 mps 692 mmHg 82%
08:00 +25°C° 0 mm 1 mps 692 mmHg 72%
09:00 +28°C° 0 mm 1 mps 693 mmHg 62%
10:00 +30°C° 0 mm 1 mps 693 mmHg 51%
11:00 +32°C° 0 mm 1 mps 692 mmHg 47%
12:00 +34°C° 0 mm 1 mps 692 mmHg 42%
13:00 +36°C° 0 mm 1 mps 691 mmHg 38%
14:00 +35°C° 0 mm 1 mps 690 mmHg 39%
15:00 +34°C° 0 mm 1 mps 690 mmHg 41%
16:00 +33°C° 0 mm 1 mps 689 mmHg 42%
17:00 +31°C° 0 mm 1 mps 689 mmHg 47%
18:00 +29°C° 0 mm 1 mps 689 mmHg 53%
19:00 +27°C° 0 mm 1 mps 689 mmHg 58%
20:00 +26°C° 0 mm 1 mps 690 mmHg 62%
21:00 +25°C° 0 mm 1 mps 691 mmHg 66%
22:00 +24°C° 0 mm 1 mps 691 mmHg 70%
23:00 +24°C° 0 mm 1 mps 691 mmHg 74%

4 October, Sunday

Time Temperature Precipitation Wind Pressure Humidity
00:00 +23°C° 0 mm 1 mps 691 mmHg 77%
01:00 +22°C° 0 mm 1 mps 691 mmHg 81%
02:00 +22°C° 0 mm 1 mps 691 mmHg 83%
03:00 +21°C° 0 mm 1 mps 691 mmHg 86%
04:00 +19°C° 0 mm 0 mps 690 mmHg 88%
05:00 +21°C° 0.1 mm 1 mps 691 mmHg 88%
06:00 +21°C° 0.1 mm 1 mps 691 mmHg 88%
07:00 +21°C° 0.1 mm 1 mps 692 mmHg 87%
08:00 +24°C° 0.1 mm 1 mps 692 mmHg 78%
09:00 +26°C° 0.1 mm 1 mps 693 mmHg 68%
10:00 +27°C° 0.1 mm 0 mps 693 mmHg 58%
11:00 +29°C° 0.1 mm 1 mps 692 mmHg 60%
12:00 +28°C° 0.1 mm 1 mps 691 mmHg 62%
13:00 +27°C° 0.1 mm 1 mps 691 mmHg 64%
14:00 +28°C° 0 mm 1 mps 690 mmHg 63%
15:00 +28°C° 0 mm 1 mps 690 mmHg 63%
16:00 +28°C° 0 mm 1 mps 689 mmHg 63%
17:00 +26°C° 0 mm 1 mps 689 mmHg 66%
18:00 +23°C° 0 mm 0 mps 690 mmHg 70%
19:00 +22°C° 0 mm 0 mps 690 mmHg 73%
20:00 +22°C° 0 mm 0 mps 690 mmHg 74%
21:00 +24°C° 0 mm 1 mps 691 mmHg 74%
22:00 +23°C° 0 mm 1 mps 691 mmHg 75%
23:00 +21°C° 0 mm 0 mps 691 mmHg 77%

5 October, Monday

Time Temperature Precipitation Wind Pressure Humidity
00:00 +21°C° 0 mm 0 mps 691 mmHg 79%
01:00 +20°C° 0 mm 0 mps 691 mmHg 81%
02:00 +20°C° 0 mm 0 mps 691 mmHg 82%
03:00 +19°C° 0 mm 0 mps 690 mmHg 83%
04:00 +19°C° 0 mm 0 mps 690 mmHg 85%
05:00 +20°C° 0 mm 0 mps 691 mmHg 83%
06:00 +20°C° 0 mm 0 mps 691 mmHg 81%
07:00 +21°C° 0 mm 0 mps 692 mmHg 79%
08:00 +24°C° 0 mm 0 mps 692 mmHg 69%
09:00 +29°C° 0 mm 1 mps 693 mmHg 59%
10:00 +32°C° 0 mm 1 mps 693 mmHg 49%
11:00 +33°C° 0 mm 1 mps 692 mmHg 46%
12:00 +34°C° 0 mm 1 mps 692 mmHg 42%
13:00 +35°C° 0 mm 1 mps 691 mmHg 39%
14:00 +34°C° 0.1 mm 1 mps 690 mmHg 43%
15:00 +32°C° 0.1 mm 1 mps 689 mmHg 48%
16:00 +31°C° 0.1 mm 1 mps 689 mmHg 52%
17:00 +29°C° 0.9 mm 1 mps 689 mmHg 63%
18:00 +26°C° 0.9 mm 1 mps 689 mmHg 74%
19:00 +24°C° 0.9 mm 1 mps 689 mmHg 85%
20:00 +24°C° 0.1 mm 1 mps 690 mmHg 85%
21:00 +24°C° 0.1 mm 1 mps 691 mmHg 86%
22:00 +23°C° 0.1 mm 1 mps 691 mmHg 87%
23:00 +23°C° 0 mm 1 mps 691 mmHg 89%
Show more

We Need Your Consent

Meteoprog and our Service Providers may store and access personal data such as cookies, device identifiers or other similar technologies on your device and process such data to personalise content and ads, as well as provide social media features and to analyse the traffic.

  • Store and/or access information on your device

    Cookies, device identifiers or other information can be stored or accessed on your device for the purposes indicated above.

  • Personalised ads and content, ad and content measurement, audience insights, and products development

    Ads and content can be personalised based on a profile. More data can be added to better personalise ads and content. Ad and content performance can be measured. Insights about the audience who saw the ads and content can be derived. Such data can be used to develop or improve user’s experience, systems and software.

By clicking ‘I Agree’ you will allow the use of indicated cookies, device identifiers, web beacons or other similar technologies. Your settings can be changed in the browser on your device.

For certain purposes, legitimate interests may be relied on, rather than consent. You can read more about this in our Privacy and Cookie Policy.